STARLINK-31684, 59492

Orbit data source: Space-Track

STARLINK-31684, 59492 is a payload satellite owned by SpaceX/Seattle (US) in LEO that was launched on Sat, 13 Apr 2024 UTC via an FALCON 9 launch vehicle from the Air Force Eastern Test Range (AFETR). Payload-class satellites include a variety of spacecraft equipped with specific instruments for various scientific and technological missions. These include communications satellites like Starlink; space stations such as the ISS; scientific satellites like the Hubble; Earth observation satellites from companies like Planet Labs, Umbra, and HawkEye 360; GPS; miniature CubeSats for education and research; and military/defense satellites.

Loading next visibility...
Identifier
59492, 2024-071J
Orbit
LEO
Country
Flag of USUS
Related business
Manufacturer
SpaceX/Seattle
Mission
Operational Commercial Communications
Bus & Motor
STARLINK V2M, Unknown motor
Mass
730 kg wet, ~700 kg dry
Launch date (UTC)
2024-04-13 (2 years ago)
Launch vehicle
FALCON 9
Launch site
Air Force Eastern Test Range (AFETR)
Object type
Payload
Rocket body
Debris
Shape & HBR
Box + 2 Pan, 17.7 m
Radar Cross Section
33.884 m², Large (>1 m²)

Expand to show TLE details & history
Last TLE update: 2 days ago

TLE from 2 days ago
0 STARLINK-31684
1 59492U 24071J   26171.18976338  .00002153  00000-0  87738-4 0  9993
2 59492  43.0017 128.4949 0000850 207.5158 152.5648 15.27580431123793
Epoch: 2026-06-20T04:33Z
TLE epoch observation values (Epoch: 2026-06-20T04:33:15.556Z)
Latitude
-0.00005°
Longitude
151.77208°
Altitude
483.341 km
Speed
7.625 km/s
True Right ascension
08h 33m 58s
True Declination
0° 00' 00"
Sunlit
Object was in daylight at epoch
Visualization orbit readout
Latitude
Unknown
Longitude
Unknown
Altitude
Unknown
Speed
Unknown
Apparent Right ascension
Unknown
Apparent Declination
Unknown
Sunlit
N/A
Visualization observer readout
Local Sidereal Time
21:34:24
Azimuth
Unknown
Elevation
Unknown
Doppler factor
Unknown
Orbital elements
Apogee altitude
485.576 km
Perigee altitude
484.409 km
Semi-major axis
6,863.13 km
Eccentricity
0.00009
Inclination
43.0017°
RAAN
128.4949°
Arg. of periapsis
207.5158°
True anomaly
152.56929°
Mean anomaly
152.5648°
Eccentric anomaly
152.56704°
Mean motion
3.81733 °/min
Orbital period
94.31 mins
BSTAR
0.000087738
Loading maneuver chart data...
Computing Atmospheric mass density...
Loading historical data...
Loading historical data...
Loading historical data...
Loading historical data...
Loading historical data...
Loading historical data...
Loading historical data...

Documentation

Showing up to 5 results
|